| time (UTC) | temp F | wind direction | speed MPH | gust MPH | rain 1hr in | rain 24hr in | rain mn in | humidity % | barometer mb |
| 20260831233050 | 76 | 246 | 5.0 | 12.0 | 0.00 | 0.01 | 0.00 | 30 | 1014.5 |
| 20260831231553 | 76 | 223 | 5.0 | 10.0 | 0.00 | 0.01 | 0.00 | 30 | 1014.7 |
| 20260831230057 | 76 | 190 | 6.0 | 11.0 | 0.00 | 0.01 | 0.00 | 31 | 1014.8 |
| 20260831224545 | 76 | 208 | 6.0 | 11.0 | 0.00 | 0.01 | 0.00 | 31 | 1014.9 |
| 20260831223044 | 76 | 160 | 8.0 | 12.0 | 0.00 | 0.01 | 0.00 | 32 | 1014.9 |
| 20260831221550 | 75 | 315 | 4.0 | 11.0 | 0.00 | 0.01 | 0.00 | 32 | 1015.0 |
| 20260831220049 | 75 | 264 | 5.0 | 13.0 | 0.00 | 0.01 | 0.00 | 31 | 1015.0 |
| 20260831214545 | 74 | 266 | 4.0 | 14.0 | 0.00 | 0.01 | 0.00 | 32 | 1015.1 |
| 20260831213046 | 74 | 302 | 9.0 | 16.0 | 0.00 | 0.01 | 0.00 | 32 | 1015.3 |
| 20260831211552 | 75 | 211 | 4.0 | 11.0 | 0.00 | 0.01 | 0.00 | 33 | 1015.5 |
| 20260831210048 | 73 | 229 | 5.0 | 12.0 | 0.00 | 0.01 | 0.00 | 34 | 1015.5 |
| 20260831204545 | 73 | 216 | 5.0 | 14.0 | 0.00 | 0.01 | 0.00 | 34 | 1015.5 |
| 20260831203059 | 73 | 267 | 5.0 | 11.0 | 0.00 | 0.01 | 0.00 | 35 | 1015.8 |
| 20260831201551 | 72 | 296 | 6.0 | 13.0 | 0.00 | 0.01 | 0.00 | 35 | 1015.6 |
| 20260831200056 | 71 | 230 | 5.0 | 14.0 | 0.00 | 0.01 | 0.00 | 37 | 1015.8 |
| 20260831194606 | 72 | 171 | 3.0 | 11.0 | 0.00 | 0.01 | 0.00 | 38 | 1016.0 |
| 20260831193053 | 70 | 276 | 7.0 | 15.0 | 0.00 | 0.01 | 0.00 | 39 | 1016.2 |
| 20260831191552 | 69 | 0 | 2.0 | 11.0 | 0.00 | 0.01 | 0.00 | 41 | 1016.1 |
| 20260831190116 | 69 | 314 | 6.0 | 11.0 | 0.00 | 0.01 | 0.00 | 40 | 1016.5 |
| 20260831184559 | 68 | 330 | 4.0 | 9.0 | 0.00 | 0.01 | 0.00 | 42 | 1016.6 |
| 20260831183044 | 68 | 313 | 7.0 | 12.0 | 0.00 | 0.01 | 0.00 | 43 | 1016.8 |
| 20260831181601 | 68 | 307 | 7.0 | 13.0 | 0.00 | 0.01 | 0.00 | 42 | 1017.2 |
| 20260831180057 | 68 | 5 | 5.0 | 11.0 | 0.00 | 0.01 | 0.00 | 43 | 1017.2 |
| 20260831174550 | 67 | 355 | 9.0 | 12.0 | 0.00 | 0.01 | 0.00 | 44 | 1017.3 |
| 20260831173046 | 67 | 320 | 4.0 | 15.0 | 0.00 | 0.01 | 0.00 | 45 | 1017.3 |
| 20260831171555 | 66 | 318 | 7.0 | 15.0 | 0.00 | 0.01 | 0.00 | 46 | 1017.2 |
| 20260831170054 | 66 | 344 | 7.0 | 15.0 | 0.00 | 0.01 | 0.00 | 47 | 1017.2 |
| 20260831164553 | 65 | 325 | 9.0 | 16.0 | 0.00 | 0.01 | 0.00 | 46 | 1017.1 |
| 20260831163054 | 65 | 360 | 11.0 | 16.0 | 0.00 | 0.01 | 0.00 | 46 | 1017.0 |
| 20260831161550 | 64 | 316 | 10.0 | 16.0 | 0.00 | 0.01 | 0.00 | 47 | 1017.0 |
| 20260831160047 | 64 | 5 | 12.0 | 17.0 | 0.00 | 0.01 | 0.00 | 47 | 1016.7 |
| 20260831154617 | 63 | 311 | 12.0 | 19.0 | 0.00 | 0.01 | 0.00 | 47 | 1016.9 |
| 20260831153109 | 62 | 292 | 10.0 | 19.0 | 0.00 | 0.01 | 0.00 | 48 | 1016.6 |
| 20260831151610 | 62 | 306 | 13.0 | 17.0 | 0.00 | 0.01 | 0.00 | 48 | 1016.7 |
| 20260831144552 | 59 | 311 | 12.0 | 18.0 | 0.00 | 0.01 | 0.00 | 51 | 1016.4 |
| 20260831143054 | 58 | 296 | 12.0 | 17.0 | 0.00 | 0.01 | 0.00 | 52 | 1016.3 |
| 20260831141552 | 58 | 300 | 12.0 | 17.0 | 0.00 | 0.01 | 0.00 | 54 | 1016.2 |
| 20260831140058 | 57 | 313 | 11.0 | 17.0 | 0.00 | 0.01 | 0.00 | 55 | 1016.0 |
| 20260831134601 | 55 | 309 | 10.0 | 15.0 | 0.00 | 0.01 | 0.00 | 57 | 1016.1 |
| 20260831133103 | 53 | 295 | 9.0 | 15.0 | 0.00 | 0.01 | 0.00 | 60 | 1016.0 |
| 20260831131557 | 53 | 296 | 9.0 | 15.0 | 0.00 | 0.01 | 0.00 | 60 | 1015.7 |
| 20260831130050 | 53 | 293 | 9.0 | 14.0 | 0.00 | 0.01 | 0.00 | 59 | 1015.4 |
| 20260831124553 | 54 | 286 | 8.0 | 13.0 | 0.00 | 0.01 | 0.00 | 57 | 1015.4 |
| 20260831123051 | 54 | 298 | 8.0 | 12.0 | 0.00 | 0.01 | 0.00 | 58 | 1015.2 |
| 20260831121546 | 54 | 307 | 8.0 | 15.0 | 0.00 | 0.01 | 0.00 | 57 | 1015.0 |
| 20260831120056 | 54 | 291 | 8.0 | 13.0 | 0.00 | 0.01 | 0.00 | 58 | 1014.7 |
| 20260831114558 | 54 | 290 | 8.0 | 12.0 | 0.00 | 0.01 | 0.00 | 57 | 1014.7 |
| 20260831113102 | 55 | 288 | 9.0 | 15.0 | 0.00 | 0.01 | 0.00 | 56 | 1014.8 |
| 20260831111545 | 55 | 270 | 9.0 | 15.0 | 0.00 | 0.01 | 0.00 | 56 | 1014.7 |
| 20260831110045 | 55 | 304 | 10.0 | 17.0 | 0.00 | 0.01 | 0.00 | 55 | 1014.6 |
| 20260831104558 | 55 | 294 | 9.0 | 17.0 | 0.00 | 0.01 | 0.00 | 56 | 1014.4 |
| 20260831103052 | 54 | 304 | 10.0 | 17.0 | 0.00 | 0.01 | 0.00 | 58 | 1014.1 |
| 20260831101548 | 55 | 284 | 14.0 | 21.0 | 0.00 | 0.01 | 0.00 | 58 | 1013.8 |
| 20260831100047 | 55 | 279 | 14.0 | 20.0 | 0.00 | 0.01 | 0.00 | 58 | 1013.7 |
| 20260831094559 | 55 | 269 | 13.0 | 25.0 | 0.00 | 0.01 | 0.00 | 58 | 1013.7 |
| 20260831093133 | 55 | 288 | 12.0 | 20.0 | 0.00 | 0.01 | 0.00 | 58 | 1013.6 |
| 20260831091550 | 55 | 274 | 14.0 | 25.0 | 0.00 | 0.01 | 0.00 | 57 | 1013.4 |
| 20260831090052 | 55 | 275 | 15.0 | 26.0 | 0.00 | 0.01 | 0.00 | 57 | 1013.4 |
| 20260831084628 | 55 | 287 | 16.0 | 25.0 | 0.00 | 0.01 | 0.00 | 57 | 1013.3 |
| 20260831083105 | 55 | 286 | 15.0 | 26.0 | 0.00 | 0.01 | 0.00 | 57 | 1012.9 |
| 20260831081547 | 55 | 278 | 16.0 | 26.0 | 0.00 | 0.01 | 0.00 | 57 | 1013.0 |
| 20260831080109 | 55 | 299 | 15.0 | 26.0 | 0.00 | 0.01 | 0.00 | 57 | 1012.9 |
| 20260831074556 | 55 | 281 | 16.0 | 26.0 | 0.00 | 0.01 | 0.00 | 57 | 1012.9 |
| 20260831073050 | 55 | 289 | 16.0 | 28.0 | 0.00 | 0.01 | 0.00 | 57 | 1012.8 |
| 20260831071551 | 55 | 284 | 18.0 | 28.0 | 0.00 | 0.01 | 0.00 | 57 | 1012.5 |
| 20260831070046 | 55 | 281 | 16.0 | 28.0 | 0.00 | 0.01 | 0.00 | 56 | 1012.5 |
| 20260831064559 | 55 | 288 | 17.0 | 26.0 | 0.00 | 0.01 | 0.00 | 56 | 1012.5 |
| 20260831063103 | 54 | 285 | 15.0 | 22.0 | 0.00 | 0.01 | 0.00 | 58 | 1012.7 |
| 20260831061550 | 53 | 275 | 12.0 | 19.0 | 0.00 | 0.01 | 0.00 | 60 | 1012.8 |
| 20260831060054 | 53 | 279 | 10.0 | 14.0 | 0.00 | 0.01 | 0.00 | 61 | 1013.3 |
| 20260831054548 | 53 | 277 | 8.0 | 16.0 | 0.00 | 0.01 | 0.01 | 60 | 1013.3 |
| 20260831053102 | 53 | 276 | 9.0 | 16.0 | 0.00 | 0.01 | 0.01 | 61 | 1013.3 |
| 20260831051554 | 52 | 286 | 7.0 | 11.0 | 0.00 | 0.01 | 0.01 | 62 | 1013.3 |
| 20260831050118 | 52 | 263 | 9.0 | 15.0 | 0.00 | 0.01 | 0.01 | 62 | 1013.3 |
| 20260831044558 | 53 | 283 | 10.0 | 17.0 | 0.00 | 0.01 | 0.01 | 61 | 1013.1 |
| 20260831043052 | 54 | 275 | 10.0 | 16.0 | 0.00 | 0.01 | 0.01 | 60 | 1012.9 |
| 20260831041552 | 53 | 273 | 11.0 | 16.0 | 0.00 | 0.01 | 0.01 | 61 | 1012.9 |
| 20260831040053 | 52 | 284 | 8.0 | 16.0 | 0.00 | 0.01 | 0.01 | 63 | 1012.8 |
| 20260831034554 | 53 | 278 | 11.0 | 17.0 | 0.00 | 0.01 | 0.01 | 63 | 1012.8 |
| 20260831033101 | 54 | 278 | 11.0 | 19.0 | 0.00 | 0.01 | 0.01 | 62 | 1013.3 |
| 20260831031555 | 54 | 313 | 10.0 | 14.0 | 0.00 | 0.01 | 0.01 | 63 | 1013.7 |
| 20260831030054 | 55 | 333 | 10.0 | 15.0 | 0.00 | 0.01 | 0.01 | 60 | 1013.5 |
| 20260831024554 | 56 | 283 | 9.0 | 16.0 | 0.00 | 0.01 | 0.01 | 57 | 1012.8 |
| 20260831023056 | 55 | 297 | 3.0 | 9.0 | 0.00 | 0.01 | 0.01 | 60 | 1012.5 |
| 20260831021553 | 55 | 313 | 4.0 | 11.0 | 0.00 | 0.01 | 0.01 | 60 | 1012.4 |
| 20260831020052 | 55 | 325 | 9.0 | 15.0 | 0.00 | 0.01 | 0.01 | 60 | 1012.4 |
| 20260831014550 | 56 | 327 | 8.0 | 20.0 | 0.00 | 0.01 | 0.01 | 59 | 1012.2 |
| 20260831013049 | 60 | 307 | 16.0 | 29.0 | 0.00 | 0.01 | 0.01 | 47 | 1011.9 |
| 20260831011552 | 60 | 275 | 19.0 | 30.0 | 0.00 | 0.01 | 0.01 | 47 | 1011.6 |
| 20260831004545 | 62 | 268 | 16.0 | 30.0 | 0.00 | 0.01 | 0.01 | 47 | 1011.6 |
| 20260831003051 | 62 | 258 | 16.0 | 29.0 | 0.00 | 0.01 | 0.01 | 46 | 1011.5 |
| 20260831001548 | 61 | 267 | 18.0 | 27.0 | 0.00 | 0.01 | 0.01 | 48 | 1011.5 |
| 20260831000048 | 59 | 265 | 19.0 | 25.0 | 0.01 | 0.01 | 0.01 | 52 | 1011.6 |
| 20260830234551 | 57 | 282 | 14.0 | 21.0 | 0.01 | 0.04 | 0.01 | 60 | 1011.6 |